Flag for Germany Weather past 2 weeks in Baden-Baden, Baden-Württemberg, Germany

Now
54 °F

Passing clouds.


Feels Like: 54 °F
Forecast: 43 / 59 °F
Wind: 2 mph from Southwest

Location: Karlsruhe - Baden Wurttemberg

Current Time: Oct 26, 2014 at 2:26:46 AM

Latest Report: Oct 26, 2014 at 1:20 AM


Visibility: N/A

Pressure: 30.24 "Hg

Humidity: 88%

Dew point: 50 °F

Location of Baden-BadenLocation

Historic Weather in Baden-Baden — Graph

°F

Baden-Baden temperature yesterday

Maximum temperature yesterday: 59 °F (at 2:20 PM)
Minimum temperature yesterday: 48 °F (at 4:50 AM)
Average temperature yesterday: 54 °F

Past Weeks' High & Low Weather Summary

 TemperatureHumidityPressure
High75 °F (Oct 19, 2:50 PM)100% (Oct 12, 5:50 AM)30.30 "Hg (Oct 12, 5:50 AM)
Low36 °F (Oct 24, 6:20 AM)50% (Oct 19, 3:50 PM)29.65 "Hg (Oct 21, 5:20 PM)
Average57 °F81%30.00 "Hg
* Reported Oct 11 4:50 AM — Oct 26 1:20 AM, Baden-Baden, Weather by CustomWeather, © 2014

Note: Actual official high and low records may vary slightly from our data, if they occured in-between our weather recording intervals... More about our weather records

Advertising

Baden-Baden weather history for previous 24 hours

 ConditionsComfort  
Time TempWeatherWind HumidityBarometerVisibility
1:20 AM
Oct 26
54 °FPassing clouds.2 mph88%30.24 "HgN/A
12:20 AM54 °FPassing clouds.2 mph88%30.24 "HgN/A
11:50 PM
Oct 25
54 °FPassing clouds.1 mph88%30.24 "HgN/A
11:20 PM54 °FPassing clouds.3 mph88%30.24 "HgN/A
10:50 PM54 °FPassing clouds.3 mph82%30.21 "HgN/A
10:20 PM52 °FPartly cloudy.2 mph88%30.21 "HgN/A
9:50 PM54 °FPartly cloudy.No wind82%30.21 "HgN/A
9:20 PM54 °FPartly cloudy.No wind82%30.21 "HgN/A
8:50 PM54 °FPartly cloudy.No wind82%30.18 "HgN/A
8:20 PM55 °FClear.No wind77%30.18 "Hg10 mi
7:50 PM55 °FPassing clouds.No wind77%30.18 "HgN/A
7:20 PM55 °FPassing clouds.2 mph77%30.18 "HgN/A
6:50 PM55 °FPartly sunny.No wind77%30.18 "HgN/A
6:20 PM57 °FBroken clouds.3 mph67%30.15 "HgN/A
5:50 PM57 °FBroken clouds.5 mph67%30.15 "HgN/A
5:20 PM59 °FBroken clouds.1 mph63%30.15 "HgN/A
4:50 PM59 °FSunny.1 mph63%30.15 "Hg10 mi
4:20 PM59 °FSunny.2 mph59%30.15 "Hg10 mi
3:50 PM59 °FSunny.3 mph59%30.15 "Hg10 mi
3:20 PM59 °FSunny.3 mph63%30.15 "Hg10 mi
2:50 PM59 °FSunny.3 mph63%30.15 "Hg10 mi
2:20 PM59 °FSunny.2 mph63%30.15 "Hg10 mi
1:50 PM57 °FSunny.3 mph67%30.15 "Hg10 mi
1:20 PM57 °FPartly sunny.5 mph67%30.15 "HgN/A
12:50 PM55 °FPartly sunny.3 mph67%30.15 "HgN/A
12:20 PM55 °FBroken clouds.6 mph72%30.15 "HgN/A
11:50 AM54 °FPartly sunny.5 mph77%30.15 "HgN/A
11:20 AM54 °FPartly sunny.6 mph77%30.15 "HgN/A
10:50 AM52 °FPartly sunny.5 mph82%30.15 "HgN/A
10:20 AM50 °FPartly sunny.2 mph88%30.15 "HgN/A
9:50 AM50 °FPartly sunny.2 mph88%30.12 "HgN/A
9:20 AM50 °FPartly sunny.3 mph88%30.12 "HgN/A
8:50 AM48 °FPassing clouds.2 mph94%30.12 "HgN/A
8:20 AM48 °FPassing clouds.3 mph94%30.12 "Hg5 mi
7:50 AM48 °FPassing clouds.5 mph94%30.09 "Hg5 mi
7:20 AM48 °FFog.2 mph87%30.09 "Hg5 mi
6:50 AM48 °FPassing clouds.3 mph87%30.09 "HgN/A
6:20 AM48 °FPartly cloudy.2 mph94%30.09 "HgN/A
5:50 AM48 °FPartly cloudy.2 mph94%30.09 "HgN/A
5:20 AM48 °FSprinkles. Partly cloudy.1 mph94%30.09 "HgN/A
4:50 AM48 °FSprinkles. Partly cloudy.1 mph87%30.09 "HgN/A
Weather by CustomWeather, © 2014

See weather overviewHow to use our weather pages